Flag for Germany Weather past 2 weeks in Aalen, Baden-Württemberg, Germany

Now
35 °F

Low clouds.


Feels Like: 26 °F
Forecast: 34 / 41 °F
Wind: 13 mph from West

Location: Stoetten

Current Time: Dec 21, 2014 at 12:15:09 AM

Latest Report: Dec 20, 2014 at 11:00 PM


Visibility: 22 mi

Pressure: 30.38 "Hg

Humidity: 92%

Dew point: 33 °F

Location of AalenLocation

Historic Weather in Aalen — Graph

°F

Aalen temperature yesterday

Maximum temperature yesterday: 41 °F (at 12:00 AM)
Minimum temperature yesterday: 33 °F (at 9:00 PM)
Average temperature yesterday: 36 °F

Past Weeks' High & Low Weather Summary

 TemperatureHumidityPressure
High49 °F (Dec 13, 3:00 PM)100% (Dec 5, 11:00 PM)30.49 "Hg (Dec 5, 11:00 PM)
Low27 °F (Dec 10, 4:00 AM)63% (Dec 12, 11:00 PM)29.78 "Hg (Dec 12, 8:00 PM)
Average37 °F91%30.10 "Hg
* Reported Dec 5 11:00 PM — Dec 20 11:00 PM, Aalen, Weather by CustomWeather, © 2014

Note: Actual official high and low records may vary slightly from our data, if they occured in-between our weather recording intervals... More about our weather records

Advertising

Aalen weather history for previous 24 hours

 ConditionsComfort  
Time TempWeatherWind HumidityBarometerVisibility
11:00 PM
Dec 20
35 °FLow clouds.13 mph92%30.38 "Hg22 mi
10:00 PM34 °FLow clouds.12 mph93%30.37 "Hg31 mi
9:00 PM33 °FLight snow. Low clouds.12 mph96%30.35 "Hg9 mi
8:00 PM34 °FLight rain. Low clouds.13 mph92%30.30 "Hg7 mi
7:00 PM36 °FOvercast.16 mph79%30.25 "Hg43 mi
6:00 PM36 °FOvercast.16 mph77%30.22 "Hg37 mi
5:00 PM36 °FOvercast.15 mph76%30.22 "Hg40 mi
4:00 PM37 °FOvercast.15 mph73%30.22 "Hg37 mi
3:00 PM36 °FOvercast.17 mph77%30.24 "Hg43 mi
2:00 PM36 °FOvercast.14 mph78%30.26 "Hg43 mi
1:00 PM36 °FOvercast.12 mph78%30.28 "Hg40 mi
12:00 PM35 °FOvercast.14 mph81%30.30 "Hg40 mi
11:00 AM35 °FOvercast.12 mph82%30.33 "Hg37 mi
10:00 AM34 °FPartly sunny.10 mph86%30.34 "Hg37 mi
9:00 AM34 °FPartly sunny.9 mph85%30.33 "Hg37 mi
8:00 AM35 °FLow clouds.8 mph93%30.32 "Hg34 mi
7:00 AM35 °FOvercast.7 mph93%30.30 "Hg34 mi
6:00 AM36 °FOvercast.6 mph89%30.31 "Hg34 mi
5:00 AM36 °FOvercast.8 mph88%30.29 "Hg31 mi
4:00 AM37 °FLow clouds.7 mph90%30.27 "Hg22 mi
3:00 AM38 °FPassing clouds.9 mph92%30.25 "Hg22 mi
2:00 AM39 °FLow clouds.9 mph97%30.23 "Hg11 mi
1:00 AM40 °FLow clouds.12 mph100%30.21 "Hg9 mi
12:00 AM41 °FLight freezing rain. Low clouds.12 mph100%30.17 "Hg0 mi
Weather by CustomWeather, © 2014

See weather overviewHow to use our weather pages